CDT,Max TemperatureF,Mean TemperatureF,Min TemperatureF,Max Dew PointF,MeanDew PointF,Min DewpointF,Max Humidity, Mean Humidity, Min Humidity, Max Sea Level PressureIn, Mean Sea Level PressureIn, Min Sea Level PressureIn, Max VisibilityMiles, Mean VisibilityMiles, Min VisibilityMiles, Max Wind SpeedMPH, Mean Wind SpeedMPH, Max Gust SpeedMPH,PrecipitationIn, CloudCover, Events, WindDirDegrees
2013-10-1,80,68,55,59,54,46,94,73,42,29.97,29.89,29.84,10,10,7,18,6,25,0.00,0,,225
2013-10-2,73,60,46,54,46,28,94,74,19,30.13,30.05,29.98,10,10,10,8,1,,0.00,1,,89
2013-10-3,77,65,53,63,57,50,100,84,54,30.01,29.94,29.86,10,8,0,13,2,17,0.49,6,Fog-Rain,154
2013-10-4,64,62,59,61,59,55,100,93,88,30.03,29.96,29.89,10,3,0,13,2,17,0.00,7,Fog-Rain,49
2013-10-5,69,64,59,64,60,57,100,92,83,29.99,29.88,29.74,10,4,0,14,3,18,0.00,8,Fog-Rain,123
2013-10-6,64,54,44,61,45,37,88,74,45,29.76,29.74,29.68,10,10,10,16,8,22,0.04,7,Rain,240
2013-10-7,64,54,44,45,42,36,93,76,34,30.10,29.87,29.71,10,10,4,15,8,20,0.01,4,Rain,269
2013-10-8,73,57,41,50,42,37,93,71,31,30.18,30.13,30.10,10,10,10,12,2,,0.00,0,,171
2013-10-9,69,56,44,48,44,37,93,70,33,30.25,30.20,30.16,10,10,7,13,5,,0.00,0,,172
2013-10-10,69,55,41,54,45,39,94,84,38,30.19,30.15,30.07,10,6,0,9,1,,0.00,2,Fog,117
2013-10-11,71,58,44,54,48,43,100,79,53,30.13,30.05,29.98,10,6,0,14,2,,0.00,2,Fog,133
2013-10-12,66,57,46,61,48,34,88,66,49,30.17,30.02,29.95,10,9,2,13,8,17,0.00,2,Rain,200
2013-10-13,59,49,39,41,37,34,87,72,39,30.42,30.31,30.17,10,10,10,12,3,20,0.00,0,,278
2013-10-14,57,46,35,43,38,34,93,79,48,30.43,30.35,30.17,10,10,10,13,1,17,0.00,1,,99
2013-10-15,59,52,46,55,47,39,94,79,71,30.16,29.95,29.75,10,9,2,12,7,,0.00,2,Rain,163
2013-10-16,53,48,44,48,44,41,93,85,77,29.92,29.84,29.78,10,8,2,14,7,17,0.01,7,Fog-Rain,244
2013-10-17,51,46,41,43,41,37,93,85,62,29.92,29.86,29.81,10,10,5,12,4,17,0.00,6,Rain,271
2013-10-18,50,42,35,41,36,34,93,80,66,29.94,29.86,29.81,10,9,7,17,4,20,0.00,4,,244
2013-10-19,51,44,37,37,34,27,87,76,38,29.90,29.82,29.74,10,10,10,16,5,22,0.00,4,Rain,232
2013-10-20,48,39,30,45,36,28,100,87,58,29.86,29.79,29.72,10,8,0,10,5,,0.00,2,Fog-Rain,218
2013-10-21,46,39,32,41,30,21,87,68,49,29.93,29.85,29.74,10,10,10,18,10,24,0.00,5,,270
2013-10-22,44,36,28,28,24,21,75,67,49,29.95,29.92,29.89,10,10,10,13,7,17,0.00,2,,269
2013-10-23,42,35,28,28,25,18,93,72,36,30.00,29.96,29.92,10,10,7,15,7,18,0.00,4,,303
2013-10-24,42,37,32,27,25,23,80,68,49,30.27,30.11,29.99,10,10,10,16,9,22,0.00,7,,291
2013-10-25,50,39,28,27,23,21,86,59,37,30.36,30.20,29.90,10,10,10,26,9,36,0.00,1,,252
2013-10-26,51,46,41,34,27,21,65,49,37,30.06,29.89,29.77,10,10,10,26,17,38,0.00,5,,263
2013-10-27,53,42,30,30,28,25,87,64,33,30.05,30.00,29.91,10,10,10,20,4,24,0.00,1,,243
2013-10-28,44,38,33,34,31,27,81,69,57,30.43,30.26,30.04,10,10,10,20,10,29,0.00,5,,21
2013-10-29,48,40,32,43,35,28,93,83,71,30.40,30.30,30.15,10,9,1,9,4,,0.00,5,,57
2013-10-30,55,45,35,52,43,34,100,91,77,30.15,30.02,29.76,7,3,0,12,1,,0.00,7,Fog-Rain,110
2013-10-31,62,53,44,59,52,41,100,91,82,29.76,29.49,29.22,10,5,1,21,5,29,0.09,8,Rain,213